Waarnemingen

Advertentie
Mijn weer
Haparanda A, Zweden (2197): temperatuur & dauwpunt: 13.08.2019 23:00:00 - 19.08.2019 23:00:00 (CEST)Haparanda A, Zweden (2197): windsnelheid & windstoten: 13.08.2019 23:00:00 - 19.08.2019 23:00:00 (CEST)Haparanda A, Zweden (2197): windrichting: 13.08.2019 23:00:00 - 19.08.2019 23:00:00 (CEST)Haparanda A, Zweden (2197): luchtdruk: 13.08.2019 23:00:00 - 19.08.2019 23:00:00 (CEST)Haparanda A, Zweden (2197): zicht: 13.08.2019 23:00:00 - 19.08.2019 23:00:00 (CEST)Haparanda A, Zweden (2197): neerslag: 13.08.2019 23:00:00 - 19.08.2019 23:00:00 (CEST)
Datum & Tijd tt [°C] td [°C] ff [km/u] ff [kn] fx [km/u] fx [kn] dd ppp [hPa] vv [km] rr [mm]
19.08.2019 23:00:00 - - - - - - - - - -
19.08.2019 22:00:00 14,2 13,6 14 7 30 16 ZZW 1003,3 20 0,0
19.08.2019 21:00:00 14,1 13,5 14 7 30 16 ZZW 1002,9 15 0,0
19.08.2019 20:00:00 14,8 14,2 12 7 34 18 ZZW 1002,6 24 0,0
19.08.2019 19:00:00 14,8 14,0 16 8 41 22 ZZW 1002,0 43 0,0
19.08.2019 18:00:00 15,0 14,0 15 8 34 18 Z 1001,0 50 0,0
19.08.2019 17:00:00 15,4 14,4 15 8 39 21 Z 1000,5 50 0,0
19.08.2019 16:00:00 15,4 14,6 17 9 39 21 Z 999,7 42 0,0
19.08.2019 15:00:00 15,0 14,4 18 10 47 26 ZZO 999,3 21 0,0
19.08.2019 14:00:00 14,4 13,9 18 10 51 28 ZZO 999,1 12 0,3
19.08.2019 13:00:00 14,1 13,8 22 12 51 27 ZO 999,3 7 2,5
19.08.2019 12:00:00 13,8 13,3 19 10 39 21 OZO 999,6 4,1 5,4
19.08.2019 11:00:00 13,6 13,1 16 8 34 18 OZO 1001,1 6 3,7
19.08.2019 10:00:00 13,5 13,2 13 7 36 19 OZO 1002,4 7 4,5
19.08.2019 09:00:00 13,5 13,0 11 6 33 18 ZO 1003,3 8 2,9
19.08.2019 08:00:00 13,2 12,6 13 7 34 18 ZO 1004,0 5 2,4
19.08.2019 07:00:00 13,6 12,5 12 6 29 16 ZO 1004,3 17 0,8
19.08.2019 06:00:00 13,8 12,4 11 6 31 17 ZO 1004,9 30 0,3
19.08.2019 05:00:00 14,8 11,8 11 6 28 15 OZO 1005,0 50 0,0
19.08.2019 04:00:00 14,9 12,0 11 6 32 18 ZO 1006,1 29 0,0
19.08.2019 03:00:00 14,8 13,3 9 5 21 12 OZO 1006,6 50 0,0
19.08.2019 02:00:00 14,7 13,7 6 4 16 9 ZO 1007,2 42 0,0
19.08.2019 01:00:00 14,8 13,8 8 5 23 12 ZO 1007,7 27 0,0
19.08.2019 00:00:00 14,6 14,0 9 5 29 16 ZO 1008,0 17 0,0
18.08.2019 23:00:00 14,7 14,2 14 8 35 19 ZZO 1008,1 10 4,8
18.08.2019 22:00:00 15,1 14,5 17 9 37 20 ZZO 1008,1 9 1,8
18.08.2019 21:00:00 15,2 14,4 15 8 37 20 ZZO 1008,2 15 0,3
18.08.2019 20:00:00 15,0 14,5 10 6 24 13 ZO 1008,5 10 0,4
18.08.2019 19:00:00 14,3 13,8 9 5 37 20 ZZO 1008,9 9 0,9
18.08.2019 18:00:00 14,9 14,3 8 4 23 12 ZZO 1009,1 7 0,8
18.08.2019 17:00:00 15,1 14,1 13 7 30 16 Z 1009,2 11 0,5
18.08.2019 16:00:00 15,5 13,9 11 6 28 15 ZZO 1009,1 19 0,3
18.08.2019 15:00:00 15,9 14,8 12 7 29 16 Z 1009,3 12 0,5
18.08.2019 14:00:00 16,3 14,7 12 6 29 16 Z 1009,3 13 0,1
18.08.2019 13:00:00 17,4 14,3 13 7 26 14 Z 1009,3 32 0,0
18.08.2019 12:00:00 17,2 14,1 13 7 31 17 Z 1009,2 38 0,0
18.08.2019 11:00:00 16,8 13,5 13 7 24 13 ZZO 1009,1 50 0,0
18.08.2019 10:00:00 16,2 13,3 10 5 29 15 ZZO 1009,1 47 0,0
18.08.2019 09:00:00 16,4 13,3 9 5 30 16 ZZO 1009,1 50 0,0
18.08.2019 08:00:00 15,6 13,4 13 7 29 16 ZZO 1009,3 50 0,0
18.08.2019 07:00:00 15,8 14,0 11 6 29 16 Z 1009,3 50 0,0
18.08.2019 06:00:00 15,0 13,9 13 7 29 16 Z 1009,1 46 0,0
18.08.2019 05:00:00 15,0 13,7 12 6 30 16 Z 1008,9 50 0,0
18.08.2019 04:00:00 14,8 13,5 13 7 32 17 Z 1008,9 47 0,0
18.08.2019 03:00:00 14,9 13,6 13 7 34 18 Z 1008,9 43 0,0
18.08.2019 02:00:00 14,5 13,5 13 7 34 18 ZZO 1009,0 49 0,0
18.08.2019 01:00:00 14,4 13,3 11 6 27 15 ZZO 1009,0 32 0,0
18.08.2019 00:00:00 13,8 13,2 8 4 18 10 Z 1008,7 12 0,0
17.08.2019 23:00:00 14,5 14,0 9 5 27 14 ZZW 1008,7 12 1,1
17.08.2019 22:00:00 15,9 14,4 10 6 22 12 Z 1008,3 38 0,1
17.08.2019 21:00:00 16,3 14,1 6 4 16 8 ZO 1008,3 45 0,0
17.08.2019 20:00:00 15,8 14,0 6 3 15 8 ZO 1008,6 37 0,0
17.08.2019 19:00:00 16,1 14,3 5 3 16 9 ZO 1008,9 38 0,0
17.08.2019 18:00:00 16,9 14,2 10 5 24 13 Z 1009,0 46 0,0
17.08.2019 17:00:00 17,7 14,6 12 6 - - Z 1009,1 45 0,0
17.08.2019 16:00:00 17,2 14,7 10 6 26 14 Z 1009,4 43 0,0
17.08.2019 15:00:00 15,8 14,5 12 7 29 16 Z 1009,7 21 0,0
17.08.2019 14:00:00 15,9 13,9 11 6 26 14 Z 1009,8 35 0,0
17.08.2019 13:00:00 15,4 13,8 11 6 29 15 Z 1009,8 43 0,0
17.08.2019 12:00:00 15,7 13,5 12 7 30 16 Z 1009,6 46 0,0
17.08.2019 11:00:00 15,2 13,9 10 5 25 13 Z 1009,4 35 0,0
17.08.2019 10:00:00 14,6 13,8 10 5 26 14 Z 1009,3 20 0,1
17.08.2019 09:00:00 14,2 13,6 9 5 24 13 Z 1009,4 8 0,4
17.08.2019 08:00:00 15,0 13,2 9 5 26 14 Z 1009,2 44 0,0
17.08.2019 07:00:00 15,1 12,4 12 7 24 13 Z 1009,4 50 0,0
17.08.2019 06:00:00 14,9 12,2 10 5 22 12 Z 1009,4 50 0,0
17.08.2019 05:00:00 14,9 12,2 11 6 24 13 Z 1009,4 50 0,0
17.08.2019 04:00:00 14,8 13,0 10 6 25 14 Z 1009,7 50 0,0
17.08.2019 03:00:00 14,9 13,1 12 7 25 13 Z 1009,8 50 0,0
17.08.2019 02:00:00 14,2 12,8 9 5 24 13 Z 1009,8 47 0,0
17.08.2019 01:00:00 14,7 13,2 13 7 30 16 ZZW 1009,5 42 0,0
17.08.2019 00:00:00 14,8 13,2 14 7 27 15 ZZW 1009,4 50 0,0
16.08.2019 23:00:00 13,8 12,2 11 6 21 11 Z 1009,5 50 0,0
16.08.2019 22:00:00 13,1 12,3 7 4 17 9 Z 1009,5 45 0,0
16.08.2019 21:00:00 12,7 11,9 5 3 13 7 ZZO 1009,4 46 0,0
16.08.2019 20:00:00 14,0 12,6 6 4 17 9 ZZO 1009,4 50 0,0
16.08.2019 19:00:00 15,0 13,0 7 4 19 10 ZZO 1009,4 50 0,0
16.08.2019 18:00:00 15,7 13,2 9 5 24 13 Z 1009,4 50 0,0
16.08.2019 17:00:00 16,0 14,0 10 6 21 11 Z 1009,5 50 0,0
16.08.2019 16:00:00 16,9 13,2 10 5 22 12 Z 1009,5 50 0,0
16.08.2019 15:00:00 16,3 12,8 11 6 22 12 Z 1009,5 50 0,0
16.08.2019 14:00:00 18,6 13,5 9 5 - - Z 1009,1 31 0,0
16.08.2019 13:00:00 18,5 12,3 8 5 16 9 OZO 1008,8 40 0,0
16.08.2019 12:00:00 18,6 12,8 7 4 14 8 ZZO 1008,7 39 0,0
16.08.2019 11:00:00 18,0 12,9 5 3 10 6 ZZO 1008,4 36 0,0
16.08.2019 10:00:00 17,8 14,1 2 1 8 4 WNW 1008,2 42 0,0
16.08.2019 09:00:00 15,6 12,5 4 2 9 5 N 1007,8 36 0,0
16.08.2019 08:00:00 13,3 12,5 4 2 10 6 NNO 1007,5 17 0,0
16.08.2019 07:00:00 11,6 11,4 5 3 12 7 NO 1006,9 - 0,0
16.08.2019 06:00:00 10,0 9,8 3 1 9 5 N 1006,5 4,2 0,0
16.08.2019 05:00:00 9,5 9,4 6 3 12 6 NNO 1006,1 2,8 0,0
16.08.2019 04:00:00 8,9 8,8 5 3 8 5 N 1005,8 3,9 0,0
16.08.2019 03:00:00 8,7 8,6 4 2 8 4 N 1005,4 5 0,0
16.08.2019 02:00:00 9,3 9,0 3 2 6 3 NNW 1004,9 4,2 0,0
16.08.2019 01:00:00 10,2 9,9 3 2 10 6 N 1004,4 2,6 0,0
16.08.2019 00:00:00 10,7 10,4 5 3 9 5 N 1003,9 0,6 0,0
15.08.2019 23:00:00 11,7 11,4 5 3 9 5 NNW 1003,5 2,5 0,0
15.08.2019 22:00:00 12,0 11,7 3 2 8 4 NNW 1003,2 4,9 0,0
15.08.2019 21:00:00 12,6 12,1 4 2 9 5 NW 1002,6 3,2 0,0
15.08.2019 20:00:00 13,9 13,4 5 3 9 5 NW 1002,3 7 0,0
15.08.2019 19:00:00 15,1 14,3 4 2 11 6 WNW 1002,0 12 0,6
15.08.2019 18:00:00 16,0 15,0 4 2 12 6 NW 1001,8 4,2 2,0
15.08.2019 17:00:00 17,2 15,4 5 3 10 6 WNW 1001,3 50 0,0
15.08.2019 16:00:00 17,5 16,0 4 2 8 5 WNW 1001,1 41 0,1
15.08.2019 15:00:00 15,9 15,1 3 2 7 4 WNW 1000,8 6 1,8
15.08.2019 14:00:00 15,6 15,0 3 2 11 6 NW 1000,7 29 0,2
15.08.2019 13:00:00 14,6 14,0 5 3 12 7 ZW 1000,6 6 1,4
15.08.2019 12:00:00 15,9 14,3 3 2 - - O 1000,4 49 0,0
15.08.2019 11:00:00 18,0 14,3 5 3 9 5 WNW 1000,2 43 -
15.08.2019 10:00:00 15,6 14,1 4 2 10 5 NNW 1000,3 48 0,0
15.08.2019 09:00:00 15,5 14,9 3 1 6 4 NNW 1000,4 35 0,0
15.08.2019 08:00:00 14,7 14,4 3 1 5 3 NNO 1000,4 20 0,0
15.08.2019 07:00:00 13,8 13,5 2 1 6 4 W 1000,3 8 0,3
15.08.2019 06:00:00 13,4 13,2 3 2 - - N 1000,5 2,2 3,1
15.08.2019 05:00:00 12,9 12,6 3 1 5 3 NW 1000,5 1,4 2,9
15.08.2019 04:00:00 12,9 12,6 2 1 4 2 N 1000,7 6 0,0
15.08.2019 03:00:00 13,2 12,9 0 0 - - N 1000,8 7 0,0
15.08.2019 02:00:00 13,0 12,7 3 2 5 3 N 1000,9 6 0,0
15.08.2019 01:00:00 13,5 13,2 3 1 5 3 WNW 1000,8 8 0,0
15.08.2019 00:00:00 13,6 13,3 3 1 5 3 NW 1001,0 8 0,0
14.08.2019 23:00:00 12,9 12,4 0 0 4 2 N 1001,2 6 0,0
14.08.2019 22:00:00 13,5 13,0 2 1 4 2 ZW 1001,4 9 0,0
14.08.2019 21:00:00 13,4 12,8 3 2 5 3 ZZW 1001,4 13 0,0
14.08.2019 20:00:00 13,7 12,8 0 0 7 4 N 1001,4 19 0,0
14.08.2019 19:00:00 15,0 12,9 4 2 8 5 ZZW 1001,2 50 0,0
14.08.2019 18:00:00 15,5 13,3 5 3 14 7 ZZW 1001,3 50 0,0
14.08.2019 17:00:00 16,4 12,9 7 4 16 9 ZW 1001,3 50 0,0
14.08.2019 16:00:00 17,6 13,5 8 4 19 10 Z 1001,6 49 0,0
14.08.2019 15:00:00 17,8 13,5 8 5 14 8 ZZW 1001,8 43 0,0
14.08.2019 14:00:00 16,9 13,6 6 3 18 10 Z 1001,9 42 0,0
14.08.2019 13:00:00 17,2 13,5 10 5 21 11 Z 1002,0 45 0,0
14.08.2019 12:00:00 19,2 13,8 8 5 19 10 Z 1001,8 41 0,0
14.08.2019 11:00:00 18,1 13,4 8 4 18 10 Z 1001,7 39 0,0
14.08.2019 10:00:00 16,8 14,1 6 4 13 7 Z 1001,8 38 0,0
14.08.2019 09:00:00 15,9 14,4 5 3 11 6 Z 1002,1 34 0,0
14.08.2019 08:00:00 15,2 14,9 3 2 7 4 OZO 1002,1 10 0,0
14.08.2019 07:00:00 14,4 14,2 4 2 7 4 ONO 1002,2 3,4 0,0
14.08.2019 06:00:00 14,2 14,0 2 1 5 3 O 1002,2 3,2 0,0
14.08.2019 05:00:00 13,8 13,6 3 1 4 2 O 1002,3 2,7 0,0
14.08.2019 04:00:00 13,6 13,4 3 1 5 3 O 1002,4 2,7 0,0
14.08.2019 03:00:00 13,6 13,4 3 2 5 3 O 1002,5 3,7 0,0
14.08.2019 02:00:00 12,9 12,7 2 1 4 2 O 1002,6 3,6 0,0
14.08.2019 01:00:00 12,8 12,6 2 1 3 2 ZZW 1002,7 2,8 0,0
14.08.2019 00:00:00 12,6 12,3 0 0 5 3 N 1003,0 2,0 0,0
13.08.2019 23:00:00 12,7 12,4 3 2 5 3 O 1003,0 3,6 0,0

tt = temperatuur
td = dauwpunt
ff = windsnelheid
fx = windstoten
dd = windrichting
ppp = luchtdruk
vv = zicht
rr = neerslag

Weerstations in de omgeving